Location: Arroyo Grande
(40.2671°N, 4.2512°W)
Time: 06:03:33
(UTC+00:00)

ATLAS 2AS CENTAUR R/B - Pass Details

Date: 03 February 2023
Orbit: 986 x 1226 km, 63.7° (Epoch: 23 March)

Event Time Altitude Azimuth Distance (km) Brightness Sun altitude
Rises 18:23:17 0° 327° (NNW) 3,954 5.9 -9.1°
Reaches altitude 10° 18:26:05 10° 331° (NNW) 2,956 5.2 -9.7°
Maximum altitude 18:32:59 63° 52° (NE) 1,161 2.7 -10.9°
Drops below altitude 10° 18:39:30 10° 134° (SE) 2,789 4.6 -12.2°
Sets 18:42:03 0° 137° (SE) 3,715 5.2 -12.6°
